Location: Unspecified
(0.0000°N, 0.0000°E)
Time: 06:40:49
(UTC+00:00)

S-56A Canister/Altair - Pass Details

Date: 03 June 2024
Orbit: 637 x 2489 km, 38.9° (Epoch: 21 June)

Event Time Altitude Azimuth Distance (km) Brightness Sun altitude
Rises 10:57:46 0° 312° (NW) 4,411 11.5 63.2°
Reaches altitude 10° 11:01:13 10° 313° (NW) 3,143 10.9 63.6°
Maximum altitude 11:08:30 86° 40° (NE) 896 9.5 64.5°
Drops below altitude 10° 11:13:36 10° 130° (SE) 2,227 10.0 65.1°
Sets 11:15:41 0° 130° (SE) 3,047 10.5 65.3°
